Total_Precipitation_Accumulation
0.06 0.08 0.08 0.09 0.09 0.08 0.13 0.09 0.11 0.07 0.08 0.10 0.08 0.09 0.08 0.08 0.08 0.08 0.08 0.09 0.09 0.10 0.16 0.18 0.19 0.17 0.16 0.18 0.24 0.24 0.21 0.21 0.20 0.21 0.25 0.26 0.30 0.36 0.35 0.37 0.59 0.58 0.36 0.12 0.04 0.02 0.01 0.01 0.02 0.05 0.09 0.15 0.22 0.24 0.23 0.13 0.11 0.12 0.10 0.13 0.16 0.21 0.22
0.09 0.09 0.09 0.11 0.11 0.10 0.09 0.15 0.12 0.09 0.10 0.10 0.09 0.09 0.10 0.12 0.15 0.11 0.11 0.09 0.10 0.09 0.11 0.16 0.19 0.16 0.15 0.16 0.25 0.28 0.28 0.26 0.23 0.26 0.26 0.24 0.27 0.31 0.31 0.28 0.39 0.47 0.38 0.23 0.08 0.03 0.02 0.02 0.01 0.04 0.05 0.10 0.13 0.19 0.24 0.24 0.20 0.16 0.15 0.15 0.17 0.21 0.19
0.12 0.12 0.13 0.13 0.11 0.12 0.14 0.15 0.16 0.13 0.17 0.19 0.17 0.15 0.13 0.13 0.13 0.13 0.13 0.12 0.12 0.12 0.12 0.15 0.19 0.20 0.18 0.18 0.28 0.30 0.32 0.31 0.31 0.29 0.27 0.27 0.21 0.21 0.19 0.22 0.31 0.42 0.40 0.27 0.18 0.07 0.05 0.04 0.03 0.04 0.06 0.08 0.12 0.14 0.13 0.21 0.26 0.24 0.24 0.21 0.21 0.20 0.19
0.10 0.12 0.12 0.14 0.15 0.19 0.14 0.15 0.13 0.16 0.19 0.20 0.18 0.21 0.23 0.19 0.17 0.17 0.18 0.20 0.18 0.17 0.19 0.20 0.22 0.22 0.22 0.25 0.28 0.29 0.30 0.33 0.34 0.35 0.35 0.32 0.26 0.25 0.19 0.15 0.17 0.25 0.34 0.28 0.25 0.15 0.10 0.06 0.06 0.05 0.06 0.06 0.08 0.13 0.18 0.19 0.27 0.28 0.28 0.25 0.27 0.21 0.22
0.11 0.13 0.14 0.14 0.12 0.12 0.11 0.12 0.12 0.13 0.14 0.14 0.16 0.19 0.20 0.21 0.22 0.22 0.22 0.22 0.24 0.28 0.29 0.28 0.27 0.26 0.24 0.26 0.34 0.35 0.37 0.37 0.39 0.42 0.43 0.43 0.37 0.35 0.30 0.26 0.25 0.26 0.28 0.39 0.34 0.24 0.13 0.08 0.08 0.08 0.08 0.08 0.11 0.13 0.18 0.22 0.27 0.31 0.34 0.33 0.28 0.24 0.20
0.15 0.15 0.14 0.14 0.14 0.13 0.16 0.13 0.14 0.14 0.17 0.14 0.12 0.13 0.14 0.15 0.16 0.17 0.19 0.21 0.23 0.24 0.28 0.31 0.31 0.29 0.30 0.31 0.36 0.38 0.36 0.41 0.48 0.51 0.49 0.48 0.51 0.52 0.47 0.46 0.44 0.41 0.43 0.44 0.41 0.33 0.24 0.15 0.13 0.13 0.13 0.12 0.12 0.14 0.17 0.26 0.29 0.28 0.34 0.38 0.39 0.38 0.31
0.16 0.16 0.16 0.15 0.15 0.15 0.15 0.15 0.14 0.14 0.13 0.13 0.13 0.15 0.15 0.15 0.15 0.15 0.15 0.17 0.18 0.18 0.21 0.24 0.26 0.27 0.27 0.31 0.34 0.36 0.35 0.35 0.37 0.47 0.52 0.53 0.55 0.53 0.58 0.70 0.72 0.65 0.58 0.56 0.55 0.53 0.36 0.29 0.26 0.18 0.20 0.13 0.11 0.13 0.14 0.18 0.25 0.33 0.31 0.33 0.34 0.37 0.35
0.19 0.17 0.17 0.18 0.18 0.17 0.16 0.16 0.16 0.15 0.15 0.14 0.14 0.15 0.17 0.16 0.19 0.21 0.20 0.19 0.17 0.17 0.19 0.19 0.20 0.21 0.21 0.22 0.24 0.26 0.27 0.29 0.36 0.41 0.48 0.48 0.50 0.56 0.69 0.76 0.77 0.74 0.74 0.74 0.70 0.61 0.52 0.41 0.33 0.26 0.21 0.21 0.22 0.23 0.24 0.20 0.22 0.27 0.28 0.32 0.35 0.34 0.34
0.22 0.22 0.23 0.20 0.20 0.21 0.18 0.20 0.19 0.17 0.18 0.19 0.19 0.21 0.26 0.25 0.28 0.27 0.27 0.25 0.23 0.22 0.20 0.19 0.19 0.18 0.22 0.19 0.19 0.20 0.22 0.23 0.28 0.37 0.46 0.46 0.48 0.57 0.66 0.71 0.71 0.75 0.78 0.78 0.73 0.67 0.51 0.46 0.38 0.32 0.28 0.26 0.27 0.30 0.28 0.22 0.20 0.25 0.24 0.25 0.27 0.31 0.34
0.24 0.27 0.36 0.25 0.23 0.23 0.25 0.23 0.22 0.20 0.21 0.27 0.38 0.46 0.49 0.51 0.48 0.44 0.42 0.39 0.35 0.30 0.25 0.23 0.21 0.18 0.16 0.17 0.18 0.21 0.23 0.26 0.30 0.32 0.39 0.47 0.50 0.55 0.66 0.73 0.78 0.77 0.71 0.72 0.77 0.67 0.55 0.54 0.44 0.34 0.27 0.25 0.21 0.17 0.14 0.15 0.18 0.21 0.20 0.19 0.26 0.28 0.33
0.34 0.33 0.32 0.31 0.32 0.35 0.33 0.31 0.26 0.24 0.33 0.54 0.74 0.75 0.78 0.70 0.60 0.51 0.48 0.44 0.40 0.35 0.28 0.23 0.20 0.20 0.19 0.19 0.20 0.22 0.25 0.29 0.30 0.37 0.42 0.41 0.42 0.53 0.66 0.81 0.86 0.79 0.68 0.70 0.68 0.61 0.51 0.47 0.40 0.30 0.27 0.25 0.21 0.17 0.16 0.18 0.19 0.23 0.24 0.28 0.31 0.37 0.33
0.41 0.33 0.32 0.33 0.34 0.36 0.35 0.36 0.30 0.35 0.56 0.71 0.95 1.20 1.06 0.90 0.76 0.63 0.54 0.48 0.44 0.38 0.33 0.28 0.25 0.23 0.21 0.22 0.21 0.21 0.22 0.24 0.29 0.35 0.37 0.43 0.50 0.59 0.74 0.88 0.84 0.87 0.82 0.70 0.71 0.68 0.58 0.53 0.42 0.28 0.23 0.22 0.23 0.25 0.21 0.22 0.24 0.30 0.34 0.35 0.34 0.30 0.29
0.38 0.38 0.39 0.40 0.45 0.40 0.38 0.38 0.34 0.44 0.66 0.79 1.09 1.38 1.45 1.11 0.87 0.71 0.55 0.44 0.38 0.34 0.31 0.28 0.30 0.28 0.26 0.22 0.20 0.24 0.25 0.27 0.29 0.32 0.37 0.43 0.47 0.52 0.68 0.91 1.16 1.02 0.83 0.89 0.86 0.83 0.67 0.49 0.43 0.43 0.30 0.20 0.22 0.28 0.34 0.31 0.34 0.38 0.39 0.39 0.36 0.30 0.24
0.45 0.45 0.50 0.50 0.52 0.49 0.48 0.45 0.43 0.50 0.79 1.04 1.25 1.58 1.71 1.19 0.96 0.77 0.62 0.49 0.42 0.37 0.34 0.32 0.34 0.36 0.33 0.27 0.25 0.27 0.28 0.29 0.31 0.32 0.35 0.40 0.46 0.49 0.49 0.61 0.68 0.69 0.65 0.72 0.85 0.94 0.84 0.53 0.47 0.38 0.34 0.47 0.38 0.40 0.47 0.46 0.46 0.46 0.46 0.47 0.44 0.32 0.28
0.51 0.52 0.55 0.56 0.65 0.62 0.60 0.51 0.49 0.69 1.00 1.15 1.34 1.61 2.01 1.40 1.18 0.93 0.70 0.55 0.47 0.44 0.40 0.36 0.34 0.33 0.31 0.28 0.28 0.28 0.29 0.31 0.34 0.35 0.39 0.39 0.38 0.36 0.35 0.33 0.34 0.41 0.54 0.61 0.56 0.61 0.63 0.52 0.41 0.36 0.31 0.30 0.37 0.53 0.56 0.51 0.50 0.46 0.49 0.52 0.49 0.49 0.45
0.43 0.44 0.45 0.45 0.49 0.55 0.54 0.42 0.48 0.74 1.01 1.17 1.42 1.85 1.66 1.50 1.15 0.91 0.74 0.59 0.51 0.46 0.41 0.37 0.38 0.40 0.38 0.33 0.30 0.29 0.48 0.41 0.40 0.47 0.50 0.46 0.37 0.32 0.28 0.27 0.25 0.39 0.47 0.38 0.49 0.53 0.50 0.47 0.42 0.51 0.47 0.48 0.49 0.47 0.49 0.57 0.63 0.67 0.77 0.85 0.87 0.72 0.47
0.32 0.34 0.39 0.40 0.41 0.44 0.40 0.38 0.42 0.60 0.91 1.05 1.33 1.96 1.95 1.61 1.16 0.87 0.70 0.56 0.49 0.46 0.42 0.38 0.38 0.39 0.41 0.36 0.32 0.32 0.57 0.69 0.72 0.70 0.67 0.62 0.51 0.40 0.34 0.29 0.21 0.41 0.80 1.17 1.41 1.55 1.25 1.08 1.10 1.20 1.40 1.38 1.35 0.93 0.92 1.02 1.14 1.03 0.77 0.80 0.84 0.61 0.38
0.34 0.34 0.36 0.40 0.41 0.41 0.43 0.38 0.36 0.50 0.72 0.92 1.23 1.59 1.50 1.37 1.20 0.88 0.71 0.61 0.53 0.50 0.47 0.39 0.42 0.40 0.40 0.40 0.33 0.48 0.71 0.92 0.91 1.07 0.85 0.69 0.62 0.54 0.46 0.32 0.20 0.18 0.23 0.65 1.16 1.46 1.52 1.66 1.44 1.36 1.37 1.58 1.53 1.42 0.92 1.09 1.31 0.92 0.59 0.65 0.62 0.57 0.35
0.34 0.33 0.34 0.36 0.38 0.40 0.44 0.42 0.38 0.42 0.66 0.92 1.27 1.40 1.35 1.25 1.12 0.97 0.79 0.72 0.66 0.55 0.46 0.39 0.35 0.41 0.47 0.42 0.42 0.73 0.92 1.32 1.08 1.09 0.85 0.60 0.60 0.62 0.55 0.37 0.24 0.21 0.22 0.24 0.32 0.41 0.50 0.63 0.82 0.77 0.77 0.65 0.75 0.88 1.02 0.93 0.93 0.76 0.70 0.71 0.59 0.50 0.45
0.29 0.30 0.33 0.35 0.42 0.44 0.43 0.43 0.41 0.44 0.58 0.91 1.19 1.26 1.13 1.02 0.98 0.96 0.87 0.80 0.70 0.69 0.60 0.48 0.43 0.38 0.42 0.69 0.96 0.94 1.28 1.39 1.84 1.21 1.08 0.82 0.79 0.71 0.51 0.28 0.21 0.24 0.27 0.28 0.28 0.28 0.25 0.32 0.37 0.49 0.63 0.64 0.58 0.53 0.60 0.79 0.66 0.68 0.70 0.67 0.59 0.48 0.43
0.31 0.35 0.39 0.38 0.39 0.43 0.44 0.44 0.42 0.37 0.51 0.86 0.97 0.96 1.23 0.98 0.92 0.80 0.78 0.78 0.76 0.65 0.56 0.51 0.45 0.41 0.38 0.47 0.73 0.96 1.23 1.40 1.70 1.55 1.10 1.08 0.96 0.64 0.44 0.40 0.46 0.42 0.34 0.36 0.31 0.28 0.27 0.28 0.32 0.43 0.53 0.63 0.57 0.53 0.53 0.65 0.48 0.50 0.46 0.58 0.65 0.59 0.51
0.39 0.38 0.31 0.29 0.33 0.39 0.40 0.38 0.37 0.40 0.46 0.69 0.88 0.99 1.17 1.02 0.89 0.73 0.81 0.85 0.67 0.52 0.45 0.40 0.39 0.40 0.41 0.45 0.66 1.03 1.46 1.47 1.60 1.75 1.24 1.13 1.29 1.30 1.15 0.62 0.53 0.45 0.44 0.39 0.37 0.34 0.32 0.31 0.33 0.35 0.40 0.53 0.56 0.51 0.62 0.54 0.47 0.39 0.34 0.31 0.34 0.43 0.49
0.38 0.34 0.31 0.31 0.35 0.37 0.36 0.35 0.34 0.44 0.39 0.47 0.73 0.88 1.04 1.08 1.04 1.00 0.77 0.74 0.65 0.50 0.41 0.36 0.37 0.37 0.42 0.56 1.00 1.30 1.48 1.52 1.77 1.52 1.39 1.54 1.42 1.38 1.14 1.01 0.93 0.76 0.64 0.53 0.43 0.39 0.42 0.36 0.31 0.34 0.33 0.33 0.42 0.43 0.37 0.42 0.41 0.39 0.36 0.36 0.30 0.27 0.28
0.38 0.30 0.31 0.35 0.36 0.35 0.33 0.32 0.37 0.38 0.33 0.35 0.50 0.76 1.01 1.01 1.01 0.95 0.74 0.67 0.56 0.48 0.44 0.41 0.40 0.46 0.61 0.95 0.98 1.10 1.32 1.55 1.40 1.33 1.49 1.64 1.46 1.04 0.98 1.04 1.10 1.03 0.91 0.72 0.56 0.49 0.40 0.34 0.25 0.25 0.25 0.26 0.23 0.34 0.40 0.40 0.42 0.37 0.36 0.34 0.29 0.24 0.23
0.30 0.32 0.32 0.33 0.34 0.36 0.35 0.35 0.36 0.31 0.31 0.33 0.37 0.49 0.66 0.72 0.81 0.69 0.64 0.59 0.50 0.47 0.47 0.46 0.56 0.69 0.80 0.90 1.01 1.05 0.95 0.97 0.88 0.91 1.11 0.99 1.01 1.05 0.99 1.05 0.96 0.85 0.81 0.87 0.78 0.58 0.40 0.26 0.21 0.20 0.20 0.20 0.24 0.28 0.40 0.46 0.48 0.47 0.38 0.37 0.34 0.31 0.23
0.33 0.31 0.30 0.31 0.31 0.35 0.38 0.40 0.34 0.29 0.31 0.35 0.37 0.40 0.48 0.57 0.52 0.52 0.48 0.53 0.48 0.39 0.36 0.39 0.55 0.44 0.45 0.50 0.58 0.66 0.76 0.96 0.71 0.62 0.61 0.73 0.85 0.83 0.93 0.97 0.87 0.69 0.65 0.64 0.53 0.47 0.42 0.32 0.24 0.25 0.26 0.22 0.24 0.32 0.39 0.46 0.52 0.58 0.53 0.47 0.48 0.45 0.41
0.35 0.36 0.37 0.37 0.36 0.38 0.39 0.40 0.32 0.30 0.33 0.41 0.48 0.49 0.50 0.54 0.50 0.51 0.43 0.42 0.49 0.45 0.39 0.37 0.40 0.40 0.43 0.44 0.47 0.57 0.67 0.61 0.50 0.53 0.71 0.60 0.56 0.76 0.86 1.10 0.78 0.59 0.57 0.48 0.41 0.39 0.33 0.31 0.36 0.31 0.37 0.40 0.36 0.36 0.33 0.35 0.39 0.48 0.49 0.45 0.43 0.40 0.39
0.53 0.57 0.59 0.61 0.52 0.52 0.45 0.38 0.32 0.33 0.43 0.60 0.62 0.63 0.57 0.54 0.52 0.59 0.58 0.43 0.42 0.43 0.39 0.42 0.43 0.47 0.46 0.56 0.61 0.62 0.62 0.58 0.56 0.48 0.43 0.44 0.50 0.57 0.64 0.75 0.74 0.69 0.68 0.53 0.52 0.54 0.44 0.46 0.45 0.49 0.45 0.40 0.37 0.30 0.26 0.29 0.37 0.40 0.48 0.53 0.51 0.61 0.54
0.95 0.87 0.86 0.72 0.69 0.77 0.66 0.53 0.52 0.49 0.56 0.66 0.69 0.71 0.69 0.69 0.64 0.60 0.56 0.44 0.43 0.47 0.47 0.43 0.45 0.45 0.45 0.43 0.44 0.47 0.48 0.45 0.42 0.38 0.39 0.46 0.50 0.46 0.48 0.50 0.64 0.70 0.60 0.48 0.52 0.60 0.58 0.59 0.57 0.49 0.42 0.42 0.42 0.34 0.28 0.29 0.37 0.40 0.42 0.51 0.61 0.66 0.54
1.19 1.15 1.08 0.93 0.71 0.74 0.85 0.78 0.64 0.59 0.81 0.89 0.92 1.05 0.86 0.80 0.88 0.78 0.63 0.52 0.47 0.44 0.45 0.41 0.38 0.37 0.37 0.35 0.33 0.35 0.34 0.33 0.33 0.34 0.34 0.38 0.42 0.41 0.42 0.44 0.49 0.53 0.49 0.45 0.54 0.51 0.55 0.52 0.50 0.44 0.43 0.43 0.42 0.39 0.32 0.30 0.38 0.44 0.47 0.56 0.67 0.66 0.57
1.11 1.16 0.95 0.87 0.93 0.81 0.60 0.56 0.51 0.52 0.79 0.92 1.12 1.12 0.98 1.04 0.93 0.87 0.77 0.63 0.56 0.50 0.43 0.39 0.34 0.34 0.32 0.29 0.28 0.30 0.30 0.30 0.31 0.30 0.29 0.32 0.34 0.35 0.37 0.41 0.43 0.48 0.47 0.47 0.50 0.53 0.58 0.53 0.50 0.45 0.38 0.37 0.34 0.34 0.37 0.43 0.47 0.44 0.51 0.55 0.55 0.55 0.49
0.89 0.97 1.07 0.87 0.92 1.04 0.83 0.68 0.64 0.63 0.91 1.07 1.26 1.24 1.02 0.98 1.02 0.94 0.78 0.62 0.62 0.55 0.44 0.37 0.33 0.33 0.31 0.28 0.28 0.27 0.25 0.28 0.32 0.32 0.32 0.31 0.28 0.26 0.26 0.30 0.37 0.42 0.45 0.47 0.48 0.49 0.53 0.57 0.56 0.52 0.44 0.37 0.33 0.32 0.34 0.41 0.52 0.58 0.68 0.63 0.55 0.49 0.42
0.56 0.63 0.76 0.80 0.96 1.06 1.00 0.76 0.72 0.75 0.94 1.03 1.12 1.03 0.79 0.78 0.77 0.65 0.60 0.50 0.38 0.34 0.37 0.36 0.34 0.33 0.32 0.30 0.29 0.28 0.29 0.31 0.34 0.29 0.28 0.28 0.28 0.26 0.24 0.24 0.25 0.31 0.38 0.42 0.45 0.47 0.49 0.59 0.52 0.56 0.53 0.50 0.42 0.39 0.37 0.33 0.36 0.38 0.42 0.50 0.56 0.51 0.45
0.42 0.39 0.41 0.43 0.57 0.69 0.72 0.61 0.59 0.60 0.62 0.70 0.78 0.77 0.77 0.79 0.69 0.61 0.62 0.44 0.37 0.33 0.32 0.31 0.31 0.32 0.33 0.33 0.33 0.33 0.32 0.33 0.35 0.28 0.26 0.22 0.21 0.22 0.22 0.20 0.22 0.26 0.31 0.34 0.37 0.41 0.40 0.43 0.46 0.53 0.55 0.58 0.51 0.44 0.38 0.38 0.35 0.34 0.40 0.47 0.44 0.41 0.40
0.32 0.29 0.33 0.43 0.45 0.56 0.60 0.51 0.48 0.54 0.64 0.74 0.76 0.74 0.85 0.66 0.59 0.64 0.51 0.37 0.30 0.30 0.30 0.30 0.29 0.29 0.28 0.28 0.28 0.31 0.31 0.31 0.32 0.28 0.26 0.24 0.22 0.19 0.19 0.23 0.22 0.21 0.23 0.25 0.29 0.32 0.35 0.37 0.42 0.46 0.47 0.48 0.48 0.47 0.47 0.42 0.39 0.39 0.37 0.38 0.40 0.36 0.33
0.35 0.31 0.30 0.38 0.38 0.42 0.56 0.56 0.49 0.52 0.68 0.85 0.83 0.82 0.70 0.57 0.48 0.40 0.38 0.33 0.32 0.31 0.32 0.31 0.32 0.32 0.31 0.33 0.34 0.35 0.33 0.32 0.32 0.32 0.31 0.29 0.26 0.24 0.22 0.23 0.24 0.23 0.22 0.21 0.22 0.25 0.28 0.32 0.37 0.41 0.46 0.46 0.43 0.40 0.38 0.35 0.33 0.32 0.34 0.34 0.34 0.37 0.35